Orbital Elements at Epoch 2459200.5 (2020-Dec-17.0) TDB
Reference: JPL 15 (heliocentric ecliptic J2000)
Element | Value | Uncertainty (1-sigma) | Units |
e | .0464328299341381 | 4.9113e-08 | |
a | 2.698119167804813 | 2.0627e-08 | au |
q | 2.572837859344094 | 1.3705e-07 | au |
i | 6.978980958643217 | 5.4958e-06 | deg |
node | 153.1421247975348 | 4.4447e-05 | deg |
peri | 175.843162596948 | 7.747e-05 | deg |
M | 205.7542656071819 | 6.448e-05 | deg |
tp | 2459894.086736621941 (2022-Nov-10.58673662) | 0.00029002 | TDB |
period | 1618.788527065581 4.43 | 1.8563e-05 5.082e-08 | d yr |
n | .222388529434775 | 2.5502e-09 | deg/d |
Q | 2.823400476265532 | 2.1584e-08 | au |
|
| | Orbit Determination Parameters
Additional Information
|